When you browse on this site, cookies collect data to enhance your experience and personalize the content and advertising you see.
Visit our Privacy Policy to learn more. By continuing to use the site, you agree to this use of cookies and data.
  • In Deutschland
  • Länderverzeichnis
  • Für 7 Tage
  • Wassertemperatur
  • Wetterkarte
  • Widgets
  • user-avatar
    Anmelden

    Stündliche Wetter Tromsø

    Heute, 29 März, Sonntag

    Zeit Temperatur Niederschläge Wind Luftdruck Luftfeuchtigkeit
    00:00 -10°C° 0.5 mm 5 m/S 752 mmHg 87%
    01:00 -9°C° 0 mm 6 m/S 752 mmHg 86%
    02:00 -10°C° 0.4 mm 5 m/S 752 mmHg 84%
    03:00 -10°C° 0.4 mm 5 m/S 752 mmHg 83%
    04:00 -9°C° 0.4 mm 4 m/S 752 mmHg 82%
    05:00 -9°C° 0.3 mm 4 m/S 752 mmHg 81%
    06:00 -8°C° 0.3 mm 3 m/S 752 mmHg 81%
    07:00 -8°C° 0 mm 3 m/S 752 mmHg 80%
    08:00 -9°C° 0.3 mm 4 m/S 752 mmHg 76%
    09:00 -8°C° 0.3 mm 4 m/S 752 mmHg 73%
    10:00 -8°C° 0.3 mm 5 m/S 752 mmHg 69%
    11:00 -8°C° 0.3 mm 5 m/S 752 mmHg 69%
    12:00 -7°C° 0.3 mm 5 m/S 752 mmHg 69%
    13:00 -7°C° 0 mm 4 m/S 753 mmHg 69%
    14:00 -7°C° 0.2 mm 4 m/S 753 mmHg 72%
    15:00 -7°C° 0.2 mm 3 m/S 753 mmHg 74%
    16:00 -7°C° 0.2 mm 3 m/S 753 mmHg 76%
    17:00 -7°C° 0.3 mm 3 m/S 753 mmHg 80%
    18:00 -8°C° 0.3 mm 3 m/S 754 mmHg 84%
    19:00 -8°C° 0.3 mm 3 m/S 754 mmHg 88%
    20:00 -8°C° 0.3 mm 3 m/S 755 mmHg 88%
    21:00 -9°C° 0.3 mm 3 m/S 755 mmHg 88%
    22:00 -9°C° 0.3 mm 3 m/S 755 mmHg 88%
    23:00 -9°C° 0.3 mm 3 m/S 755 mmHg 88%

    Morgen, 30 März, Montag

    Zeit Temperatur Niederschläge Wind Luftdruck Luftfeuchtigkeit
    00:00 -9°C° 0.3 mm 3 m/S 756 mmHg 89%
    01:00 -9°C° 0.3 mm 3 m/S 756 mmHg 89%
    02:00 -9°C° 0.3 mm 3 m/S 756 mmHg 89%
    03:00 -8°C° 0.3 mm 2 m/S 756 mmHg 90%
    04:00 -8°C° 0.3 mm 2 m/S 756 mmHg 90%
    05:00 -8°C° 0.2 mm 2 m/S 756 mmHg 90%
    06:00 -8°C° 0.2 mm 2 m/S 756 mmHg 91%
    07:00 -7°C° 0.2 mm 2 m/S 756 mmHg 91%
    08:00 -7°C° 0.3 mm 2 m/S 756 mmHg 89%
    09:00 -6°C° 0.3 mm 2 m/S 756 mmHg 87%
    10:00 -6°C° 0.3 mm 3 m/S 756 mmHg 85%
    11:00 -6°C° 0.2 mm 3 m/S 756 mmHg 84%
    12:00 -6°C° 0.2 mm 3 m/S 756 mmHg 82%
    13:00 -5°C° 0.2 mm 3 m/S 756 mmHg 80%
    14:00 -5°C° 0.2 mm 3 m/S 756 mmHg 82%
    15:00 -5°C° 0.2 mm 3 m/S 756 mmHg 84%
    16:00 -5°C° 0.2 mm 3 m/S 755 mmHg 86%
    17:00 -6°C° 0.1 mm 3 m/S 755 mmHg 86%
    18:00 -8°C° 0.1 mm 4 m/S 754 mmHg 87%
    19:00 -9°C° 0.1 mm 4 m/S 753 mmHg 87%
    20:00 -10°C° 0 mm 4 m/S 752 mmHg 86%
    21:00 -10°C° 0 mm 4 m/S 750 mmHg 85%
    22:00 -11°C° 0 mm 4 m/S 749 mmHg 84%
    23:00 -11°C° 0.1 mm 4 m/S 747 mmHg 85%

    übermorgen, 31 März, Dienstag

    Zeit Temperatur Niederschläge Wind Luftdruck Luftfeuchtigkeit
    00:00 -12°C° 0.1 mm 5 m/S 745 mmHg 85%
    01:00 -11°C° 0.1 mm 5 m/S 744 mmHg 86%
    02:00 -12°C° 0.7 mm 5 m/S 741 mmHg 88%
    03:00 -12°C° 0.7 mm 5 m/S 739 mmHg 91%
    04:00 -12°C° 0.7 mm 6 m/S 736 mmHg 94%
    05:00 -12°C° 0.8 mm 6 m/S 735 mmHg 94%
    06:00 -11°C° 0.8 mm 6 m/S 733 mmHg 93%
    07:00 -11°C° 0.8 mm 6 m/S 731 mmHg 93%
    08:00 -10°C° 0.8 mm 6 m/S 730 mmHg 94%
    09:00 -8°C° 0.8 mm 6 m/S 730 mmHg 94%
    10:00 -6°C° 0.8 mm 6 m/S 729 mmHg 94%
    11:00 -5°C° 1.3 mm 6 m/S 728 mmHg 95%
    12:00 -4°C° 1.3 mm 6 m/S 727 mmHg 95%
    13:00 -3°C° 1.3 mm 6 m/S 727 mmHg 96%
    14:00 -2°C° 0.5 mm 5 m/S 726 mmHg 95%
    15:00 -2°C° 0.5 mm 4 m/S 725 mmHg 94%
    16:00 -2°C° 0.5 mm 4 m/S 724 mmHg 93%
    17:00 -1°C° 0.4 mm 3 m/S 724 mmHg 93%
    18:00 -2°C° 0.4 mm 2 m/S 724 mmHg 94%
    19:00 -1°C° 0.4 mm 1 m/S 724 mmHg 95%
    20:00 -1°C° 0.2 mm 1 m/S 724 mmHg 95%
    21:00 -1°C° 0.2 mm 1 m/S 725 mmHg 95%
    22:00 -2°C° 0.2 mm 1 m/S 725 mmHg 95%
    23:00 -2°C° 0.1 mm 1 m/S 726 mmHg 95%

    1 April, Mittwoch

    Zeit Temperatur Niederschläge Wind Luftdruck Luftfeuchtigkeit
    00:00 -2°C° 0.1 mm 1 m/S 727 mmHg 94%
    01:00 -5°C° 0.1 mm 2 m/S 728 mmHg 94%
    02:00 -4°C° 0.3 mm 2 m/S 729 mmHg 95%
    03:00 -4°C° 0.3 mm 2 m/S 729 mmHg 96%
    04:00 -3°C° 0.3 mm 2 m/S 730 mmHg 97%
    05:00 -3°C° 0.5 mm 2 m/S 730 mmHg 97%
    06:00 -3°C° 0.5 mm 2 m/S 731 mmHg 96%
    07:00 -2°C° 0.5 mm 3 m/S 732 mmHg 96%
    08:00 -2°C° 0.4 mm 3 m/S 732 mmHg 96%
    09:00 -2°C° 0.4 mm 3 m/S 733 mmHg 96%
    10:00 -2°C° 0.4 mm 3 m/S 734 mmHg 95%
    11:00 -2°C° 0.6 mm 3 m/S 734 mmHg 94%
    12:00 -3°C° 0.6 mm 4 m/S 735 mmHg 92%
    13:00 -3°C° 0.6 mm 4 m/S 735 mmHg 90%
    14:00 -4°C° 0.3 mm 5 m/S 735 mmHg 87%
    15:00 -5°C° 0.3 mm 5 m/S 735 mmHg 84%
    16:00 -5°C° 0.3 mm 5 m/S 736 mmHg 81%
    17:00 -6°C° 0.2 mm 5 m/S 736 mmHg 83%
    18:00 -5°C° 0.2 mm 4 m/S 736 mmHg 84%
    19:00 -6°C° 0.2 mm 3 m/S 736 mmHg 85%
    20:00 -7°C° 0.1 mm 3 m/S 736 mmHg 87%
    21:00 -7°C° 0.1 mm 3 m/S 736 mmHg 88%
    22:00 -7°C° 0.1 mm 2 m/S 736 mmHg 90%
    23:00 -7°C° 0 mm 2 m/S 736 mmHg 90%

    2 April, Donnerstag

    Zeit Temperatur Niederschläge Wind Luftdruck Luftfeuchtigkeit
    00:00 -7°C° 0 mm 2 m/S 735 mmHg 91%
    01:00 -7°C° 0 mm 1 m/S 735 mmHg 91%
    02:00 -7°C° 0 mm 1 m/S 735 mmHg 91%
    03:00 -7°C° 0 mm 1 m/S 735 mmHg 92%
    04:00 -8°C° 0 mm 1 m/S 734 mmHg 92%
    05:00 -7°C° 0 mm 1 m/S 734 mmHg 92%
    06:00 -7°C° 0 mm 1 m/S 734 mmHg 92%
    07:00 -7°C° 0 mm 1 m/S 733 mmHg 92%
    08:00 -6°C° 0.1 mm 1 m/S 733 mmHg 89%
    09:00 -4°C° 0.1 mm 1 m/S 733 mmHg 87%
    10:00 -3°C° 0.1 mm 1 m/S 732 mmHg 85%
    11:00 -5°C° 0.2 mm 2 m/S 732 mmHg 84%
    12:00 -4°C° 0.2 mm 2 m/S 732 mmHg 83%
    13:00 -4°C° 0.2 mm 2 m/S 731 mmHg 82%
    14:00 -5°C° 0.3 mm 3 m/S 731 mmHg 84%
    15:00 -5°C° 0.3 mm 3 m/S 731 mmHg 85%
    16:00 -5°C° 0.3 mm 3 m/S 731 mmHg 87%
    17:00 -6°C° 0.3 mm 3 m/S 731 mmHg 90%
    18:00 -7°C° 0.3 mm 3 m/S 731 mmHg 92%
    19:00 -7°C° 0.3 mm 3 m/S 731 mmHg 95%
    20:00 -8°C° 0.4 mm 3 m/S 731 mmHg 95%
    21:00 -8°C° 0.4 mm 3 m/S 731 mmHg 95%
    22:00 -8°C° 0.4 mm 3 m/S 731 mmHg 96%
    23:00 -8°C° 0.6 mm 3 m/S 731 mmHg 96%

    3 April, Freitag

    Zeit Temperatur Niederschläge Wind Luftdruck Luftfeuchtigkeit
    00:00 -9°C° 0.6 mm 3 m/S 731 mmHg 96%
    01:00 -9°C° 0.6 mm 3 m/S 731 mmHg 96%
    02:00 -9°C° 0.5 mm 3 m/S 730 mmHg 96%
    03:00 -9°C° 0.5 mm 3 m/S 730 mmHg 96%
    04:00 -8°C° 0.5 mm 2 m/S 730 mmHg 96%
    05:00 -8°C° 0.7 mm 2 m/S 731 mmHg 95%
    06:00 -8°C° 0.7 mm 3 m/S 731 mmHg 94%
    07:00 -8°C° 0.7 mm 3 m/S 731 mmHg 93%
    08:00 -7°C° 0.7 mm 3 m/S 731 mmHg 90%
    09:00 -8°C° 0.7 mm 4 m/S 731 mmHg 88%
    10:00 -7°C° 0.7 mm 4 m/S 731 mmHg 85%
    11:00 -7°C° 0.2 mm 4 m/S 731 mmHg 78%
    12:00 -7°C° 0.2 mm 4 m/S 731 mmHg 71%
    13:00 -5°C° 0.2 mm 4 m/S 732 mmHg 64%
    14:00 -6°C° 0.1 mm 3 m/S 732 mmHg 67%
    15:00 -6°C° 0.1 mm 3 m/S 732 mmHg 70%
    16:00 -6°C° 0.1 mm 3 m/S 732 mmHg 73%
    17:00 -6°C° 0.1 mm 2 m/S 733 mmHg 76%
    18:00 -7°C° 0.1 mm 2 m/S 733 mmHg 79%
    19:00 -9°C° 0.1 mm 2 m/S 733 mmHg 81%
    20:00 -9°C° 0.2 mm 2 m/S 733 mmHg 84%
    21:00 -9°C° 0.2 mm 2 m/S 734 mmHg 86%
    22:00 -9°C° 0.2 mm 3 m/S 734 mmHg 88%
    23:00 -9°C° 0.7 mm 3 m/S 734 mmHg 89%
    Mehr zeigen